SCP
0 0 0 0 0 0 0 0 0 0 0 0 0 0 0 0 0 0 0 0 0 0 0 0 0 0 0 0 0 0 0 0 0 0 0 0 0 0 0 0 0 0 0 -0
0 0 0 0 0 0 0 0 0 0 0 0 0 0 0 0 0 0 0 0 0 0 0 0 0 0 0 0 0 0 0 0 0 0 0 0 0 0 0 0 0 0 0 0
0 0 0 0 0 0 0 0 0 0 0 0 0 0 0 0 0 0 0 0 0 0 0 0 0 0 0 0 0 0 0 0 0 0 0 0 0 0 0 0 0 0 0 0
0 0 0 0 0 0 0 0 0 0 0 0 0 0 0 0 0 0 0 0 0 0 0 0 0 0 0 0 0 0 0 0 0 0 0 0 0 0 0 0 0 0 0 0
0 0 0 0 0 0 0 0 0 0 0 0 0 0 0 0 0 0 0 0 0 0 0 0 0 0 0 0 0 0 0 0 0 0 0 0 0 0 0 0 0 0 0 0
0 0 0 0 0 0 0 0 0 0 0 0 0 0 0 0 0 0 0 0 0 0 0 0 0 0 0 0 0 0 0 0 0 0 0 0 0 0 0 0 0 0 0 0
0 0 0 0 0 0 0 0 0 0 0 0 0 0 0 0 0 0 0 0 0 0 0 0 0 0 0 0 0 0 0 0 0 0 0 0 0 0 0 0 0 0 0 0
0 0 0 0 0 0 0 0 0 0 0 0 0 0 0 0 0 0 0 0 0 0 0 0 0 0 0 0 0 0 0 0 0 0 0 0 0 0 0 0 0 0 0 0
0 0 0 0 0 0 0 0 0 0 0 0 0 0 0 0 0 0 0 0 0 0 0 0 0 0 0 0 0 0 0 0 0 0 0 0 0 0 0 0 0 0 0 0
0 0 0 0 0 0 0 0 0 0 0 0 0 0 0 0 0 0 0 0 0 0 0 0 0 0 0 0 0 0 0 0 0 0 0 0 0 0 0 0 0 0 0 0
0 0 0 0 0 0 0 0 0 0 0 0 0 0 0 0 0 0 0 0 0 0 0 0 0 0 0 0 0 0 0 0 0 0 0 0 0 0 0 0 0 0 0 0
0 0 0 0 0 0 0 0 0 0 0 0 0 0 0 -0 0 0 0 0 0 0 0 0 0 0 0 0 0 0 0 0 0 0 0 0 0 0 0 0 0 0 0 0
0 0 0 0 0 0 0 0 0 0 0 0 0 0 0 0 0 0 0 0 0 0 0 0 -0 -0 -0 -0 0 -0 0 0 0 0 0 0 0 0 0 0 0 0 0 0
0 0 0 0 0 0 0 0 0 0 0 0 0 0 0 0 0 0 0 0 0 0 0 0 0 0 0 -0 -0 -0 -0 -0 0 0 0 0 0 0 0 0 -0 0 0 0
0 0 0 0 0 0 0 0 0 0 0 0 0 0 0 0 0 0 0 0 0 0 0 0 0 0 0 0 0 0 0 -0 -0 -0 -0 -0 -0 -0 -0 -0 -0 -0 0 0
0 0 0 0 0 0 0 0 0 0 0 0 0 0 0 0 0 0 0 0 0 0 0 0 0 -0 0 0 0 0 0 0 0 0 0 0 0 0 0 0 0 0 0 0
0 0 0 0 0 0 0 0 0 0 0 0 0 0 0 0 0 0 0 0 0 0 0 0 0 0 0 0 0 0 0 0 0 0 0 0 0 0 0 0 0 0 0 0
0 0 0 0 0 0 0 0 0 0 0 0 0 0 0 0 0 0 0 0 0 0 0 0 0 0 0 0 0 0 0 0 0 0 0 0 0 0 0 0 0 0 0 0
0 0 0 0 0 0 0 0 0 0 0 0 0 0 0 0 0 0 0 0 0 0 0 0 0 0 0 0 0 0 0 0 0 0 0 -0 -0 -0 -0 0 0 0 0 0
0 0 0 0 0 0 0 0 0 0 0 0 0 0 0 0 0 0 0 0 0 0 0 0 0 0 0 0 0 0 0 0 0 0 -0 -0 0 0 0 0 0 0 0 0
0 0 0 0 0 0 0 0 0 0 0 0 0 0 0 0 0 0 0 0 0 0 0 0 0 0 0 0 0 0 0 0 0 0 0 -0 0 0 0 0 0 0 0 0
0 0 0 0 0 0 0 0 0 0 0 0 0 0 0 0 0 0 0 0 0 0 0 0 0 0 0 0 0 0 0 -0 -0 -0 -0 -0 -0 0 0 0 0 0 0 0
0 0 0 0 0 0 0 0 0 0 0 0 0 0 0 0 0 0 0 0 0 0 0 0 0 0 0 0 0 -0 -0 -0 -0 -0 -0 -0 0 0 0 0 0 0 0 0
0 0 0 0 0 0 0 0 0 0 0 0 0 0 0 0 0 0 0 0 0 0 0 0 0 0 0 -0 -0 -0 -0 -0 -0 -0 -0 -0 0 0 -0 -0 -0 -0 -0 0
0 0 0 0 0 0 0 0 0 0 0 0 0 0 0 0 0 0 0 0 0 0 0 0 0 0 -0 -0 -0 -0 -0 -0 -0 -0 -0 -0 -0 -0 -0 0 0 0 0 0
0 0 0 0 0 0 0 0 0 0 0 0 0 0 0 0 0 0 0 0 0 0 0 0 -0 -0 -0 -0 -0 -0 -0 -0 -0 -0 -0 -0 0 0 0 0 0 0 0 0
0 0 0 0 0 0 0 0 0 0 0 0 0 0 0 0 0 0 0 0 0 0 0 0 -0 -0 -0 -0 -0 -0 -0 -0 -0 -0 -0 0 -0 -0 -0 -0 0 0 0 0
Wind_Speed_500mb
72 66 66 61 64 60 49 45 11 29 38 23 13 11 18 20 42 24 24 23 38 46 43 49 47 50 40 29 17 14 9 3 20 49 15 7 25 36 36 17 24 21 26 56
40 38 39 49 52 48 32 22 39 30 49 16 18 14 33 29 25 14 12 22 30 32 34 29 41 50 44 43 22 20 15 3 10 33 20 8 17 26 26 36 28 57 26 55
45 45 42 28 19 23 39 19 8 18 54 59 40 33 43 45 59 47 51 22 22 39 33 37 17 38 26 40 33 41 29 16 30 42 33 8 21 33 37 39 35 46 52 58
30 42 50 40 30 18 30 18 12 20 11 28 37 39 29 53 54 57 42 26 50 41 27 41 43 49 59 47 35 2 12 38 49 64 72 66 47 38 34 56 53 41 62 51
35 33 35 42 38 35 24 13 11 13 16 41 43 49 40 54 61 55 46 46 48 54 51 48 52 44 38 38 8 22 15 26 42 54 62 67 56 49 71 62 61 64 59 63
34 31 36 31 38 41 18 16 19 19 9 10 15 31 58 67 56 73 72 60 47 50 56 87 93 84 64 15 15 24 13 13 19 41 52 48 38 71 74 72 76 64 56 71
39 39 37 37 32 30 35 38 39 13 13 15 15 15 19 31 46 55 70 70 55 79 78 79 66 37 41 45 41 39 22 40 24 20 18 36 45 38 58 70 72 72 56 67
48 43 43 40 37 37 40 44 37 12 14 24 36 39 29 28 41 28 33 72 90 80 60 33 28 15 14 36 50 48 47 38 21 18 34 41 13 45 48 54 70 58 58 66
51 49 47 47 44 43 43 50 35 26 16 26 38 25 30 25 30 37 44 69 66 66 19 16 28 29 25 17 14 57 57 48 34 24 20 35 36 53 44 40 28 43 53 52
48 52 52 51 50 50 46 52 42 38 26 51 50 37 30 28 22 11 12 17 23 25 21 24 21 19 9 20 18 19 15 23 47 43 40 23 20 26 39 40 46 61 66 56
54 52 53 56 55 52 52 62 54 57 40 65 58 61 51 37 38 17 14 24 7 8 13 19 30 26 34 40 53 54 48 26 25 25 34 48 36 45 48 49 61 52 50 59
58 60 58 56 57 58 54 64 62 60 61 40 25 38 44 50 50 48 29 24 28 13 8 11 9 30 18 27 26 45 48 49 44 38 27 11 25 45 84 91 78 74 64 68
63 61 60 58 57 60 55 60 63 63 53 60 58 52 71 67 79 66 43 42 53 42 45 11 8 15 11 13 18 32 23 18 12 30 21 42 62 76 65 56 50 48 56 57
63 63 63 61 57 57 57 60 60 60 30 12 25 43 42 45 37 50 58 71 53 54 44 24 17 19 15 26 33 32 30 37 46 52 51 54 56 49 59 77 72 78 82 85
67 66 64 62 59 54 55 61 64 69 54 10 15 28 45 39 59 65 54 53 56 49 26 16 21 22 28 25 31 36 37 46 36 41 59 48 61 74 68 77 74 74 75 83
71 70 66 62 56 50 44 47 69 72 72 22 10 18 44 52 60 57 59 65 64 52 36 16 33 54 35 21 33 39 61 67 66 49 65 80 100 93 102 100 98 90 83 81
58 56 58 55 53 45 49 23 7 9 40 23 8 8 20 47 53 54 52 54 52 38 35 23 36 38 51 31 40 53 83 94 97 96 81 72 74 53 80 86 94 83 84 89
43 43 45 46 38 42 53 66 64 47 35 21 8 10 12 26 18 11 23 30 32 27 30 34 22 43 25 28 43 63 48 45 44 44 48 43 61 71 67 74 80 83 83 82
32 31 31 29 31 30 52 52 51 57 55 9 6 9 8 14 19 17 11 16 15 30 22 29 30 26 20 11 11 22 32 30 44 63 65 57 39 63 73 68 86 65 78 81
21 19 12 9 18 35 32 17 12 22 10 11 5 15 14 16 10 3 3 8 7 8 11 16 10 22 10 22 18 24 33 36 42 54 48 71 82 60 72 84 87 76 83 87
16 11 13 19 15 16 11 11 10 3 5 10 13 17 15 11 10 10 14 6 6 9 12 10 9 18 7 15 26 33 35 38 43 45 57 61 69 85 83 94 90 90 96 103
12 10 12 13 18 12 10 5 2 8 10 10 8 9 17 10 14 8 11 7 7 13 2 7 20 7 18 33 46 44 42 48 54 55 68 67 67 75 82 89 100 102 103 107
17 12 14 12 8 13 10 13 8 7 7 13 10 7 10 12 16 7 7 10 11 4 9 24 19 8 33 49 55 57 53 54 62 72 68 71 78 78 79 95 89 92 97 97
11 9 9 8 8 8 10 9 4 2 4 2 6 6 8 8 6 8 9 11 8 11 27 39 4 27 53 61 61 64 73 70 71 69 74 77 74 77 84 82 80 77 86 84
9 6 8 12 7 2 0 2 2 5 3 6 4 7 6 6 8 7 11 8 12 14 21 5 26 52 55 64 67 68 73 75 74 77 77 78 77 76 78 71 67 66 58 50
8 9 7 4 3 5 3 4 3 8 6 5 4 6 7 15 8 11 14 13 29 16 6 32 49 55 61 66 69 72 72 74 75 73 72 72 71 70 65 60 45 38 26 18
10 8 8 1 6 3 2 1 3 8 5 4 5 10 12 4 8 8 4 8 8 21 39 42 46 58 71 74 72 71 73 73 71 69 64 65 59 49 43 41 37 26 16 12
Wind_Direction_500mb
277 276 272 270 267 265 260 256 226 237 210 179 182 223 233 259 271 286 260 268 263 265 267 259 254 249 250 197 154 195 212 292 248 250 262 244 256 238 216 220 229 235 260 274
273 275 280 274 277 269 252 253 241 234 208 216 207 224 232 236 250 227 209 242 247 255 260 271 265 271 269 264 186 187 166 223 269 279 242 168 217 220 238 237 252 250 241 261
270 265 269 273 284 280 247 256 231 183 206 227 229 218 233 236 238 242 229 221 246 261 254 256 261 263 266 256 253 239 169 209 231 238 240 211 206 221 223 223 236 250 241 264
292 276 264 260 263 278 260 243 252 218 198 226 227 223 227 240 243 228 224 231 221 221 232 243 246 253 260 265 258 134 217 228 226 237 255 262 268 270 237 230 233 240 256 244
296 296 287 274 264 276 280 268 290 310 292 252 218 225 223 233 242 235 227 227 228 223 225 223 249 228 239 230 177 244 210 242 237 244 248 253 254 252 253 261 257 255 252 266
289 292 285 289 285 281 283 257 280 322 265 299 266 242 238 235 235 246 244 247 234 235 226 229 241 252 253 148 202 210 199 221 230 245 246 254 251 239 247 251 254 247 248 253
279 281 285 279 273 270 272 276 297 278 280 262 260 298 304 288 274 262 258 251 248 252 253 255 255 255 253 250 230 205 197 215 220 243 232 232 237 249 238 244 253 256 249 250
284 277 278 276 272 267 270 279 274 271 275 275 270 273 274 303 289 280 296 276 266 271 267 257 256 238 218 234 230 220 217 222 229 228 228 246 229 223 223 227 240 244 247 249
280 282 278 274 271 267 266 263 260 259 277 257 276 290 296 293 286 285 269 286 294 265 260 245 245 238 241 214 211 215 220 219 225 223 237 242 234 233 247 246 254 254 241 252
275 275 278 275 271 268 259 261 253 249 258 275 264 262 286 283 299 305 322 344 324 298 242 240 236 239 211 231 206 206 192 215 225 230 245 248 243 250 239 234 247 236 248 249
270 271 272 272 272 267 262 263 255 248 253 264 272 264 265 265 273 270 333 334 252 283 260 246 250 251 248 251 244 233 224 213 216 230 241 249 215 231 224 237 247 245 242 247
273 267 267 270 266 267 263 261 262 259 246 254 256 261 259 253 255 268 258 255 284 279 297 317 324 303 299 269 289 247 244 236 247 238 239 238 212 223 238 245 251 261 268 274
274 270 264 265 265 265 262 261 263 261 257 263 259 256 272 258 256 256 249 250 251 261 269 298 298 277 331 289 293 318 306 351 344 336 3 336 321 323 315 313 310 299 292 294
273 270 265 259 263 266 263 260 259 254 254 237 257 267 250 242 247 243 240 253 262 264 269 266 265 270 263 274 284 284 282 302 287 289 281 293 292 280 307 304 308 306 300 294
273 268 265 258 257 264 264 262 258 254 248 287 282 280 260 257 265 261 251 245 246 247 260 249 252 261 272 268 274 266 273 280 280 280 291 293 291 306 317 321 310 302 295 296
270 266 261 259 251 259 268 267 261 254 248 258 255 264 258 254 251 254 248 240 247 250 246 250 239 248 253 266 265 273 276 279 282 280 287 292 291 289 290 288 289 291 291 291
269 260 257 250 246 249 238 249 297 234 221 236 238 229 240 252 253 254 254 254 245 240 242 244 253 254 251 255 262 271 267 267 271 275 288 293 295 307 297 295 295 295 292 291
266 260 255 248 247 255 254 253 252 250 236 242 254 258 261 249 228 239 235 237 231 231 244 251 251 257 257 263 260 269 300 329 303 319 318 303 302 304 302 301 300 299 297 293
263 254 244 246 246 245 255 268 261 242 228 243 202 212 259 201 232 245 249 239 252 257 248 248 256 259 246 272 353 350 341 337 313 314 310 309 301 304 303 306 301 300 295 295
260 250 246 247 226 244 252 238 223 212 245 240 201 193 233 202 226 255 252 228 237 247 239 267 232 246 236 46 21 349 333 328 327 327 324 324 315 311 305 299 295 292 289 292
237 216 219 241 229 189 213 219 217 158 237 236 243 250 250 243 209 213 200 239 248 254 250 238 251 262 113 11 351 336 325 315 310 299 295 296 293 297 300 297 294 294 293 289
225 225 258 224 200 195 214 186 115 226 227 203 215 226 204 206 199 199 188 233 237 256 175 237 267 287 36 351 333 327 322 316 309 305 299 300 297 294 292 291 293 295 297 295
228 231 202 195 187 215 201 190 212 224 197 211 214 213 203 197 215 229 233 230 233 268 237 257 278 26 340 335 328 320 319 318 313 311 308 305 303 302 297 296 295 298 298 298
211 232 227 218 185 231 206 227 260 95 300 250 210 242 219 226 209 241 235 237 237 243 258 268 7 351 329 325 323 321 321 320 315 312 311 308 305 304 307 308 308 301 299 305
221 212 239 214 244 208 21 267 176 2 347 344 272 258 242 226 235 226 240 246 230 248 275 3 339 326 322 319 320 319 317 318 317 317 314 310 311 311 311 313 312 309 309 308
215 231 253 206 262 204 138 28 71 353 335 298 261 267 229 227 224 218 227 254 264 285 352 320 318 316 316 315 316 316 315 314 314 314 313 313 316 316 317 319 316 322 330 348
212 209 227 61 46 44 78 40 8 333 344 240 246 229 237 344 242 247 37 279 345 327 313 311 313 313 315 317 317 318 318 319 319 318 321 322 323 329 328 331 339 355 13 52
Wind_Speed_850mb
72 66 66 61 64 60 49 45 11 29 38 23 13 11 18 20 42 24 24 23 38 46 43 49 47 50 40 29 17 14 9 3 20 49 15 7 25 36 36 17 24 21 26 56
40 38 39 49 52 48 32 22 39 30 49 16 18 14 33 29 25 14 12 22 30 32 34 29 41 50 44 43 22 20 15 3 10 33 20 8 17 26 26 36 28 57 26 55
45 45 42 28 19 23 39 19 8 18 54 59 40 33 43 45 59 47 51 22 22 39 33 37 17 38 26 40 33 41 29 16 30 42 33 8 21 33 37 39 35 46 52 58
30 42 50 40 30 18 30 18 12 20 11 28 37 39 29 53 54 57 42 26 50 41 27 41 43 49 59 47 35 2 12 38 49 64 72 66 47 38 34 56 53 41 62 51
35 33 35 42 38 35 24 13 11 13 16 41 43 49 40 54 61 55 46 46 48 54 51 48 52 44 38 38 8 22 15 26 42 54 62 67 56 49 71 62 61 64 59 63
34 31 36 31 38 41 18 16 19 19 9 10 15 31 58 67 56 73 72 60 47 50 56 87 93 84 64 15 15 24 13 13 19 41 52 48 38 71 74 72 76 64 56 71
39 39 37 37 32 30 35 38 39 13 13 15 15 15 19 31 46 55 70 70 55 79 78 79 66 37 41 45 41 39 22 40 24 20 18 36 45 38 58 70 72 72 56 67
48 43 43 40 37 37 40 44 37 12 14 24 36 39 29 28 41 28 33 72 90 80 60 33 28 15 14 36 50 48 47 38 21 18 34 41 13 45 48 54 70 58 58 66
51 49 47 47 44 43 43 50 35 26 16 26 38 25 30 25 30 37 44 69 66 66 19 16 28 29 25 17 14 57 57 48 34 24 20 35 36 53 44 40 28 43 53 52
48 52 52 51 50 50 46 52 42 38 26 51 50 37 30 28 22 11 12 17 23 25 21 24 21 19 9 20 18 19 15 23 47 43 40 23 20 26 39 40 46 61 66 56
54 52 53 56 55 52 52 62 54 57 40 65 58 61 51 37 38 17 14 24 7 8 13 19 30 26 34 40 53 54 48 26 25 25 34 48 36 45 48 49 61 52 50 59
58 60 58 56 57 58 54 64 62 60 61 40 25 38 44 50 50 48 29 24 28 13 8 11 9 30 18 27 26 45 48 49 44 38 27 11 25 45 84 91 78 74 64 68
63 61 60 58 57 60 55 60 63 63 53 60 58 52 71 67 79 66 43 42 53 42 45 11 8 15 11 13 18 32 23 18 12 30 21 42 62 76 65 56 50 48 56 57
63 63 63 61 57 57 57 60 60 60 30 12 25 43 42 45 37 50 58 71 53 54 44 24 17 19 15 26 33 32 30 37 46 52 51 54 56 49 59 77 72 78 82 85
67 66 64 62 59 54 55 61 64 69 54 10 15 28 45 39 59 65 54 53 56 49 26 16 21 22 28 25 31 36 37 46 36 41 59 48 61 74 68 77 74 74 75 83
71 70 66 62 56 50 44 47 69 72 72 22 10 18 44 52 60 57 59 65 64 52 36 16 33 54 35 21 33 39 61 67 66 49 65 80 100 93 102 100 98 90 83 81
58 56 58 55 53 45 49 23 7 9 40 23 8 8 20 47 53 54 52 54 52 38 35 23 36 38 51 31 40 53 83 94 97 96 81 72 74 53 80 86 94 83 84 89
43 43 45 46 38 42 53 66 64 47 35 21 8 10 12 26 18 11 23 30 32 27 30 34 22 43 25 28 43 63 48 45 44 44 48 43 61 71 67 74 80 83 83 82
32 31 31 29 31 30 52 52 51 57 55 9 6 9 8 14 19 17 11 16 15 30 22 29 30 26 20 11 11 22 32 30 44 63 65 57 39 63 73 68 86 65 78 81
21 19 12 9 18 35 32 17 12 22 10 11 5 15 14 16 10 3 3 8 7 8 11 16 10 22 10 22 18 24 33 36 42 54 48 71 82 60 72 84 87 76 83 87
16 11 13 19 15 16 11 11 10 3 5 10 13 17 15 11 10 10 14 6 6 9 12 10 9 18 7 15 26 33 35 38 43 45 57 61 69 85 83 94 90 90 96 103
12 10 12 13 18 12 10 5 2 8 10 10 8 9 17 10 14 8 11 7 7 13 2 7 20 7 18 33 46 44 42 48 54 55 68 67 67 75 82 89 100 102 103 107
17 12 14 12 8 13 10 13 8 7 7 13 10 7 10 12 16 7 7 10 11 4 9 24 19 8 33 49 55 57 53 54 62 72 68 71 78 78 79 95 89 92 97 97
11 9 9 8 8 8 10 9 4 2 4 2 6 6 8 8 6 8 9 11 8 11 27 39 4 27 53 61 61 64 73 70 71 69 74 77 74 77 84 82 80 77 86 84
9 6 8 12 7 2 0 2 2 5 3 6 4 7 6 6 8 7 11 8 12 14 21 5 26 52 55 64 67 68 73 75 74 77 77 78 77 76 78 71 67 66 58 50
8 9 7 4 3 5 3 4 3 8 6 5 4 6 7 15 8 11 14 13 29 16 6 32 49 55 61 66 69 72 72 74 75 73 72 72 71 70 65 60 45 38 26 18
10 8 8 1 6 3 2 1 3 8 5 4 5 10 12 4 8 8 4 8 8 21 39 42 46 58 71 74 72 71 73 73 71 69 64 65 59 49 43 41 37 26 16 12
Wind_Direction_850mb
277 276 272 270 267 265 260 256 226 237 210 179 182 223 233 259 271 286 260 268 263 265 267 259 254 249 250 197 154 195 212 292 248 250 262 244 256 238 216 220 229 235 260 274
273 275 280 274 277 269 252 253 241 234 208 216 207 224 232 236 250 227 209 242 247 255 260 271 265 271 269 264 186 187 166 223 269 279 242 168 217 220 238 237 252 250 241 261
270 265 269 273 284 280 247 256 231 183 206 227 229 218 233 236 238 242 229 221 246 261 254 256 261 263 266 256 253 239 169 209 231 238 240 211 206 221 223 223 236 250 241 264
292 276 264 260 263 278 260 243 252 218 198 226 227 223 227 240 243 228 224 231 221 221 232 243 246 253 260 265 258 134 217 228 226 237 255 262 268 270 237 230 233 240 256 244
296 296 287 274 264 276 280 268 290 310 292 252 218 225 223 233 242 235 227 227 228 223 225 223 249 228 239 230 177 244 210 242 237 244 248 253 254 252 253 261 257 255 252 266
289 292 285 289 285 281 283 257 280 322 265 299 266 242 238 235 235 246 244 247 234 235 226 229 241 252 253 148 202 210 199 221 230 245 246 254 251 239 247 251 254 247 248 253
279 281 285 279 273 270 272 276 297 278 280 262 260 298 304 288 274 262 258 251 248 252 253 255 255 255 253 250 230 205 197 215 220 243 232 232 237 249 238 244 253 256 249 250
284 277 278 276 272 267 270 279 274 271 275 275 270 273 274 303 289 280 296 276 266 271 267 257 256 238 218 234 230 220 217 222 229 228 228 246 229 223 223 227 240 244 247 249
280 282 278 274 271 267 266 263 260 259 277 257 276 290 296 293 286 285 269 286 294 265 260 245 245 238 241 214 211 215 220 219 225 223 237 242 234 233 247 246 254 254 241 252
275 275 278 275 271 268 259 261 253 249 258 275 264 262 286 283 299 305 322 344 324 298 242 240 236 239 211 231 206 206 192 215 225 230 245 248 243 250 239 234 247 236 248 249
270 271 272 272 272 267 262 263 255 248 253 264 272 264 265 265 273 270 333 334 252 283 260 246 250 251 248 251 244 233 224 213 216 230 241 249 215 231 224 237 247 245 242 247
273 267 267 270 266 267 263 261 262 259 246 254 256 261 259 253 255 268 258 255 284 279 297 317 324 303 299 269 289 247 244 236 247 238 239 238 212 223 238 245 251 261 268 274
274 270 264 265 265 265 262 261 263 261 257 263 259 256 272 258 256 256 249 250 251 261 269 298 298 277 331 289 293 318 306 351 344 336 3 336 321 323 315 313 310 299 292 294
273 270 265 259 263 266 263 260 259 254 254 237 257 267 250 242 247 243 240 253 262 264 269 266 265 270 263 274 284 284 282 302 287 289 281 293 292 280 307 304 308 306 300 294
273 268 265 258 257 264 264 262 258 254 248 287 282 280 260 257 265 261 251 245 246 247 260 249 252 261 272 268 274 266 273 280 280 280 291 293 291 306 317 321 310 302 295 296
270 266 261 259 251 259 268 267 261 254 248 258 255 264 258 254 251 254 248 240 247 250 246 250 239 248 253 266 265 273 276 279 282 280 287 292 291 289 290 288 289 291 291 291
269 260 257 250 246 249 238 249 297 234 221 236 238 229 240 252 253 254 254 254 245 240 242 244 253 254 251 255 262 271 267 267 271 275 288 293 295 307 297 295 295 295 292 291
266 260 255 248 247 255 254 253 252 250 236 242 254 258 261 249 228 239 235 237 231 231 244 251 251 257 257 263 260 269 300 329 303 319 318 303 302 304 302 301 300 299 297 293
263 254 244 246 246 245 255 268 261 242 228 243 202 212 259 201 232 245 249 239 252 257 248 248 256 259 246 272 353 350 341 337 313 314 310 309 301 304 303 306 301 300 295 295
260 250 246 247 226 244 252 238 223 212 245 240 201 193 233 202 226 255 252 228 237 247 239 267 232 246 236 46 21 349 333 328 327 327 324 324 315 311 305 299 295 292 289 292
237 216 219 241 229 189 213 219 217 158 237 236 243 250 250 243 209 213 200 239 248 254 250 238 251 262 113 11 351 336 325 315 310 299 295 296 293 297 300 297 294 294 293 289
225 225 258 224 200 195 214 186 115 226 227 203 215 226 204 206 199 199 188 233 237 256 175 237 267 287 36 351 333 327 322 316 309 305 299 300 297 294 292 291 293 295 297 295
228 231 202 195 187 215 201 190 212 224 197 211 214 213 203 197 215 229 233 230 233 268 237 257 278 26 340 335 328 320 319 318 313 311 308 305 303 302 297 296 295 298 298 298
211 232 227 218 185 231 206 227 260 95 300 250 210 242 219 226 209 241 235 237 237 243 258 268 7 351 329 325 323 321 321 320 315 312 311 308 305 304 307 308 308 301 299 305
221 212 239 214 244 208 21 267 176 2 347 344 272 258 242 226 235 226 240 246 230 248 275 3 339 326 322 319 320 319 317 318 317 317 314 310 311 311 311 313 312 309 309 308
215 231 253 206 262 204 138 28 71 353 335 298 261 267 229 227 224 218 227 254 264 285 352 320 318 316 316 315 316 316 315 314 314 314 313 313 316 316 317 319 316 322 330 348
212 209 227 61 46 44 78 40 8 333 344 240 246 229 237 344 242 247 37 279 345 327 313 311 313 313 315 317 317 318 318 319 319 318 321 322 323 329 328 331 339 355 13 52